Starlink 11722

operational
NORAD ID: 64128 Int'l Des: 2025-111 Owner: SPXS Country: US Constellation: starlink
LEOCIRCULAR

Starlink 11722について

説明を読み込み中...

リアルタイム位置

3D地球を読み込み中...

次回通過

高度履歴

Altitude vs Time

uPlot chart will show altitude changes over time

軌道要素

1 64128U 25111F 25260.57784016 .00200039 00000-0 15202-2 0 9990
2 64128 42.9987 297.2638 0001400 278.7118 81.3591 15.70918229 19368
Epoch: Sep 17, 2025 • Age: 36 hours

現在のステータス

高度 363.3 km
速度 7.69 km/s
衛星直下点 -33.06°S, 124.76°E
打ち上げ日 May 24, 2025
運用期間 0.3 years
タイプ internet

技術仕様

分類 Payload
質量 960.00 kg
乾燥質量 910.00 kg
総質量 960.00 kg
長さ 0.30 m
直径 4.10 m
スパン 29.00 m
形状 Box + pan
製造者 SPXS
バスタイプ Starlink V2MD
フェーズステータス In Orbit
所有者/国 SPXS/US

大規模コンステレーション

Loading constellations...